Location: Christian Reformed Church
(43.0975°N, 93.8113°W)
Time: 12:18:12
(UTC+00:00)

Okean 1-7 Rocket - Pass Details

Date: 23 March 2026
Orbit: 609 x 643 km, 82.5° (Epoch: 14 April)

Event Time Altitude Azimuth Distance (km) Brightness Sun altitude
Rises 09:24:16 0° 11° (N) 2,911 7.6 -29.8°
Reaches altitude 10° 09:27:47 10° 41° (NE) 1,990 7.0 -29.3°
Maximum altitude 09:29:44 13° 67° (ENE) 1,810 6.8 -29.0°
Drops below altitude 10° 09:31:40 10° 94° (E) 1,976 6.8 -28.7°
Sets 09:35:08 0° 123° (ESE) 2,869 7.3 -28.2°
